星链-4479 (STARLINK-4479 )

导读 | 豆包AI

STARLINK-4479是美国太空探索技术公司 SpaceX 星链互联网卫星星座中的一员,于2022年8月10日发射入轨,属于星链项目批量部署的低轨通信卫星。它运行在近地轨道,主要为全球范围内用户提供低延迟宽带互联网接入服务,是星链星座构建全球卫星互联网组网的重要组成单元。

Basic Information
目录编号:
53415
目录名称:
STARLINK-4479
国际标识:
2022-097AD
轨道中心:
EARTH
卫星名称:
星链-4479
卫星全名:
星链-4479 (STARLINK-4479 )
卫星状态:
在轨 (已飞行1359 天)
发射日期:
2022-08-10 UTC
国别 :
美国 (US)
星等 :
--
Orbit Information
数据来源 国际轨道数据 AOE轨道数据
星历时间 2026-04-29T23:06:58+0800
1天前
查看轨道信息
2026-04-28T15:00:00+0800
2天前
查看轨道信息
半长轴 6917.88km 6917.864km
偏心率 0.000131 0.0001878
轨道倾角 53.218° 53.214°
近地点辐角 98.843° 27.735°
升交点赤经 245.438° 251.440°
平近点角 261.271° 259.718°
近地点 538.836km 538.427km
远地点 540.65km 541.027km
周期 95.438分钟 95.437分钟
每日圈数 15.088403 15.088455
Detailed Information
固有亮度:
5
最大亮度:
2.5
卫星平台:
Starlink v1.5
覆盖范围:
全球
运营商:
太空探索技术公司
运营商所在国:
美国
制造商(研发单位):
太空探索技术公司
制造商所在国:
美国
使用方式:
暂无
Satellite Introduction
星链(Starlink)计划是由太空探索技术公司(SpaceX)提出的一个巨型低轨卫星互联网星座项目,计划在2019年至2024年间在太空搭建由约1.2万颗卫星组成的“星链”网络,其中1584颗将部署在地球上空550千米处的近地轨道,并从2020年开始工作。该卫星仍在工作。
2D Orbit Map
3D Orbit Map
Orbit Altitude Analysis Chart
Orbit Inclination Analysis Chart
Orbit Comprehensive Analysis Chart
View Comprehensive Chart